Regional Weather Roundup
Issued by NWS

Home | Current Version | Previous Version | Text Only | Print | Product List | Glossary On
Versions: 1 2 3 4 5 6 7 8 9 10 11 12 13 14 15 16 17 18 19 20 21 22 23 24 25 26 27 28 29 30 31 32 33 34 35 36 37 38 39 40 41 42 43 44 45 46 47 48 49 50
000
ASUS44 KMEG 011510
RWRTN
TENNESSEE HOURLY STATE WEATHER ROUNDUP
NATIONAL WEATHER SERVICE MEMPHIS TN
1000 AM CDT SUN MAY 01 2016

TNZ002-004-019-021-049-052-054-088>092-011600-
WEST TENNESSEE

CITY           SKY/WX    TMP DP  RH WIND       PRES   REMARKS
MEMPHIS INTL   MOSUNNY   76  68  76 S6        29.93R
NWS MEMPHIS      N/A     76 N/A N/A MISG        N/A
JACKSON        MOSUNNY   74  67  78 S6        29.94S
DYERSBURG      SUNNY     75  66  73 SW6         N/A
UNION CITY     PTSUNNY   72  70  94 S6        29.91S
LEXINGTON      CLOUDY    70  66  88 SW6       29.95S
$$

TNZ008-025-027-028-033-062-065-066-011600-
NORTH MIDDLE TENNESSEE

CITY           SKY/WX    TMP DP  RH WIND       PRES   REMARKS
NASHVILLE      CLOUDY    72  64  76 SW7       29.98R
CLARKSVILLE    CLOUDY    67  65  93 SW6       29.95S
SMYRNA         CLOUDY    72  65  78 SW9       29.99R
COOKEVILLE     MOSUNNY   73  66  78 SW12      29.98F
CROSSVILLE     MOSUNNY   73  60  63 VRB7      30.03S
$$

TNZ061-075-076-078-094-096-097-011600-
SOUTH MIDDLE TENNESSEE

CITY           SKY/WX    TMP DP  RH WIND       PRES   REMARKS
FAYETTEVILLE   CLOUDY    70  64  83 SW8       30.01S
TULLAHOMA      PTSUNNY   72  70  94 S9        30.02S
WINCHESTER     CLOUDY    72  63  73 S5        30.02R
MCMINNVILLE    MOSUNNY   72  64  78 S9        30.01R
COLUMBIA       CLOUDY    72  72 100 S7        29.96F
SHELBYVILLE    CLOUDY    73  66  78 S9        30.00F
$$

TNZ017-018-042-046-047-011600-
NORTHEAST TENNESSEE

CITY           SKY/WX    TMP DP  RH WIND       PRES   REMARKS
TRI CITIES     CLOUDY    65  61  87 SE5       30.06S
$$

TNZ012-013-036-069-073-074-011600-
CENTRAL EAST TENNESSEE

CITY           SKY/WX    TMP DP  RH WIND       PRES   REMARKS
KNOXVILLE      CLOUDY    72  67  84 CALM      30.01F
OAK RIDGE      CLOUDY    71  65  81 VRB5      30.02F
GATLINBURG     MOSUNNY   70  64  83 CALM      30.02F
$$

TNZ083-085-099-011600-
SOUTHEAST TENNESSEE

CITY           SKY/WX    TMP DP  RH WIND       PRES   REMARKS
CHATTANOOGA    PTSUNNY   73  65  75 CALM      30.02R
$$

SKY/WX REPORTED AS FAIR MEANS FEW OR NO CLOUDS BELOW
12 THOUSAND FEET.




USA.gov is the U.S. government's official web portal to all federal, state and local government web resources and services.